STARLINK-32350 (61063 NORAD) Tracking and Keplerian Element Data

This shows tracking and keplerian element data for the satellite.

Feedback or suggestion? Click here.




ElementValue
Catalog61063
NameSTARLINK-32350
Epoch Orbit590
Epoch Day286.91668981
Epoch Year2024
RAAN321.6769
Inclination53.1598
Eccentricity0.0001062
Argument of Perigee71.9809
Mean Anonmoly18.5959
Mean Motion15.43171624
Decay Rate-0.014887
L11 61063U 24164P 24286.91668981 -.01488700 00000+0 -36544-1 0 9995
L22 61063 53.1598 321.6769 0001062 71.9809 18.5959 15.43171624 5901



Live tracking and technical data element details for STARLINK-32350 (NORAD 61063). STARLINK-32350 can be tracked NOW for your location showing map with azimuth and elevation plus other details from your city location.







IsCatalogInMostPopularTable: catalog: 61063, numindb: 27
Update: records affected: 1



GetName: 61063 STARLINK-32350

Hit Count: updated at: Fri, 06 Dec 2024 10:04:45 GMT